Location: Skalnate Pleso
(49.1889°N, 20.2450°E)
Time: 00:48:46
(UTC+01:00)

STARLINK-21 - Pass Details

Date: 19 November 2019
Orbit: 529 x 531 km, 53.0° (Epoch: 12 December)

Event Time Altitude Azimuth Distance (km) Brightness Sun altitude
Exits shadow 04:51:22 29° 210° (SSW) 1,006 4.7 -19.8°
Maximum altitude 04:53:10 53° 147° (SSE) 664 4.2 -19.5°
Drops below altitude 10° 04:57:13 10° 70° (ENE) 1,829 7.2 -18.9°
Sets 04:59:31 0° 66° (ENE) 2,746 8.2 -18.5°
